Simultaneous Nadir Overpasses (SNOs) Predictions

Prediction of SNOs between GOES-17 and METOP-C Satellite Orbit:

Table of predicted SNOs for the next 14.0 days since TLE Epoch: 5/22/2020
Index Date Time (GOES-17) GOES-17 Lat,Lon METOP-C Lat,Lon Distance(km) Time Diff (sec)
1 05/22/2020 18:51:31 0.03,-137.20 0.72,-140.21 343.57 80
2 05/23/2020 18:33:33 0.03,-137.20 -0.44,-135.23 225.35 80
3 05/25/2020 06:49:54 -0.02,-137.19 -0.59,-139.83 299.87 80
4 05/26/2020 06:29:15 -0.02,-137.19 0.52,-134.83 268.45 80
5 05/27/2020 18:48:06 0.01,-137.18 0.50,-139.39 252.33 80
6 05/28/2020 18:30:06 0.01,-137.17 -0.60,-134.40 315.61 80
7 05/30/2020 06:46:28 -0.01,-137.15 -0.41,-139.00 210.65 80
8 05/31/2020 06:28:28 -0.01,-137.13 0.69,-134.00 357.06 80
9 06/01/2020 18:44:39 0.01,-137.12 0.33,-138.56 164.65 80
10 06/02/2020 18:26:40 0.00,-137.10 -0.77,-133.56 402.69 80
11 06/04/2020 06:43:01 0.00,-137.07 -0.22,-138.17 124.56 80
12 06/05/2020 06:25:02 0.00,-137.05 0.88,-133.17 442.30 80




NCC Satellite Simultaneous Nadir Overpasses (SNOs) Prediction Service
